HFY712 FAOR-AT98

Flight info

Callsign HFY712
Flight time 6h 35m
Altitude 34000
Route GAV5B GAV UW95 BLV/N0469F280 UW81 PEV/N0480F340 DCT 37S025E 4000S02430E 4500S02330E 50S022E 55S020E/N0473F360 60S018E 65S015E 70S010E DCT 71S00838E DCT 713134S0084756E
Aircraft A343/H-SDE1E2E3FGHIJ3J5KM1P2RTWXYZ/LB1D1

Departure

Time 2026-04-22 00:22
Airport O.R. Tambo International Airport (FAOR)

Arrival

Time 2026-04-22 06:58
Airport (Duplicate)Wolf's Fang Runway (AT98)
Time Latitude Longitude Altitude Speed Heading
2026-04-21 23:54 -26.13039 28.23612 5554 ft 0 kts
2026-04-22 00:13 -26.13063 28.23610 5551 ft 4 kts
2026-04-22 00:13 -26.13087 28.23607 5553 ft 2 kts
2026-04-22 00:13 -26.13110 28.23600 5553 ft 4 kts 41°
2026-04-22 00:14 -26.13123 28.23577 5553 ft 4 kts 85°
2026-04-22 00:14 -26.13122 28.23549 5552 ft 4 kts 96°
2026-04-22 00:14 -26.13120 28.23532 5553 ft 0 kts 96°
2026-04-22 00:16 -26.13121 28.23537 5553 ft 3 kts 96°
2026-04-22 00:16 -26.13125 28.23578 5552 ft 8 kts 96°
2026-04-22 00:17 -26.13134 28.23650 5553 ft 10 kts 106°
2026-04-22 00:17 -26.13183 28.23686 5550 ft 8 kts 182°
2026-04-22 00:17 -26.13246 28.23666 5552 ft 12 kts 196°
2026-04-22 00:17 -26.13336 28.23637 5555 ft 15 kts 196°
2026-04-22 00:18 -26.13448 28.23603 5557 ft 19 kts 194°
2026-04-22 00:18 -26.13586 28.23559 5559 ft 22 kts 195°
2026-04-22 00:18 -26.13743 28.23511 5562 ft 23 kts 195°
2026-04-22 00:18 -26.13881 28.23468 5565 ft 19 kts 196°
2026-04-22 00:19 -26.13999 28.23433 5565 ft 15 kts 195°
2026-04-22 00:19 -26.14092 28.23404 5568 ft 14 kts 195°
2026-04-22 00:19 -26.14195 28.23372 5568 ft 17 kts 195°
2026-04-22 00:19 -26.14322 28.23333 5569 ft 20 kts 195°
2026-04-22 00:20 -26.14456 28.23291 5569 ft 17 kts 195°
2026-04-22 00:20 -26.14553 28.23282 5568 ft 13 kts 163°
2026-04-22 00:20 -26.14603 28.23334 5570 ft 8 kts 111°
2026-04-22 00:20 -26.14613 28.23386 5570 ft 6 kts 101°
2026-04-22 00:21 -26.14617 28.23427 5571 ft 5 kts 81°
2026-04-22 00:21 -26.14595 28.23449 5569 ft 4 kts 22°
2026-04-22 00:21 -26.14544 28.23463 5570 ft 18 kts 15°
2026-04-22 00:21 -26.14248 28.23557 5570 ft 69 kts 15°
2026-04-22 00:22 -26.13625 28.23750 5561 ft 116 kts 15°
2026-04-22 00:22 -26.12714 28.24032 5549 ft 155 kts 15°
2026-04-22 00:22 -26.11576 28.24386 5655 ft 175 kts 17°
2026-04-22 00:22 -26.10439 28.24741 6260 ft 171 kts 15°
2026-04-22 00:23 -26.09238 28.24739 6504 ft 182 kts 331°
2026-04-22 00:23 -26.08529 28.23609 6807 ft 191 kts 278°
2026-04-22 00:23 -26.08838 28.22117 6885 ft 211 kts 242°
2026-04-22 00:23 -26.09684 28.20748 7165 ft 218 kts 236°
2026-04-22 00:24 -26.10545 28.19304 7433 ft 232 kts 239°
2026-04-22 00:24 -26.11404 28.17703 7623 ft 251 kts 240°
2026-04-22 00:24 -26.12313 28.15972 7890 ft 267 kts 240°
2026-04-22 00:24 -26.13261 28.14151 8315 ft 276 kts 240°
2026-04-22 00:25 -26.14212 28.12312 8855 ft 279 kts 240°
2026-04-22 00:25 -26.15177 28.10429 9473 ft 281 kts 240°
2026-04-22 00:25 -26.16140 28.08532 10096 ft 282 kts 240°
2026-04-22 00:25 -26.17107 28.06612 10554 ft 289 kts 241°
2026-04-22 00:26 -26.18122 28.04629 10823 ft 301 kts 240°
2026-04-22 00:26 -26.19193 28.02579 11078 ft 312 kts 239°
2026-04-22 00:26 -26.20752 28.00833 11280 ft 328 kts 216°
2026-04-22 00:26 -26.22534 27.99198 11490 ft 338 kts 228°
2026-04-22 00:27 -26.24186 27.97279 11725 ft 348 kts 228°
2026-04-22 00:27 -26.25899 27.95320 11951 ft 358 kts 227°
2026-04-22 00:27 -26.27678 27.93342 12350 ft 363 kts 227°
2026-04-22 00:27 -26.29488 27.91362 12839 ft 366 kts 227°
2026-04-22 00:28 -26.31315 27.89381 13348 ft 367 kts 227°
2026-04-22 00:28 -26.33155 27.87398 13838 ft 369 kts 227°
2026-04-22 00:28 -26.35002 27.85409 14289 ft 371 kts 227°
2026-04-22 00:28 -26.36869 27.83397 14671 ft 374 kts 228°
2026-04-22 00:29 -26.38746 27.81376 15103 ft 376 kts 228°
2026-04-22 00:29 -26.40637 27.79339 15482 ft 380 kts 228°
2026-04-22 00:29 -26.42543 27.77288 15902 ft 382 kts 228°
2026-04-22 00:29 -26.44464 27.75220 16332 ft 385 kts 228°
2026-04-22 00:30 -26.46393 27.73143 16777 ft 387 kts 229°
2026-04-22 00:30 -26.48334 27.71051 17215 ft 389 kts 229°
2026-04-22 00:30 -26.50298 27.68954 17619 ft 393 kts 227°
2026-04-22 00:30 -26.52454 27.67027 18040 ft 401 kts 221°
2026-04-22 00:31 -26.54783 27.65287 18460 ft 405 kts 218°
2026-04-22 00:31 -26.57198 27.63631 18800 ft 409 kts 217°
2026-04-22 00:31 -26.59662 27.62004 19122 ft 413 kts 216°
2026-04-22 00:31 -26.62154 27.60373 19442 ft 417 kts 217°
2026-04-22 00:32 -26.64661 27.58727 19750 ft 419 kts 217°
2026-04-22 00:32 -26.67178 27.57060 20081 ft 422 kts 217°
2026-04-22 00:32 -26.69711 27.55367 20423 ft 425 kts 218°
2026-04-22 00:32 -26.72251 27.53661 20756 ft 428 kts 218°
2026-04-22 00:33 -26.74809 27.51936 21068 ft 431 kts 218°
2026-04-22 00:33 -26.77384 27.50194 21394 ft 434 kts 218°
2026-04-22 00:33 -26.79971 27.48441 21693 ft 436 kts 218°
2026-04-22 00:33 -26.82576 27.46678 22023 ft 438 kts 218°
2026-04-22 00:34 -26.85189 27.44909 22378 ft 440 kts 218°
2026-04-22 00:34 -26.87814 27.43131 22694 ft 443 kts 219°
2026-04-22 00:34 -26.90457 27.41339 22984 ft 445 kts 219°
2026-04-22 00:34 -26.93117 27.39535 23289 ft 448 kts 219°
2026-04-22 00:35 -26.95754 27.37746 23581 ft 451 kts 219°
2026-04-22 00:35 -26.98445 27.35919 23856 ft 454 kts 219°
2026-04-22 00:35 -27.01150 27.34083 24188 ft 454 kts 219°
2026-04-22 00:35 -27.03857 27.32246 24456 ft 456 kts 220°
2026-04-22 00:36 -27.06579 27.30395 24697 ft 459 kts 220°
2026-04-22 00:36 -27.09312 27.28535 24966 ft 460 kts 220°
2026-04-22 00:36 -27.12056 27.26667 25215 ft 463 kts 220°
2026-04-22 00:36 -27.14816 27.24788 25438 ft 465 kts 220°
2026-04-22 00:37 -27.17587 27.22900 25681 ft 467 kts 220°
2026-04-22 00:37 -27.20375 27.21000 25933 ft 469 kts 220°
2026-04-22 00:37 -27.23171 27.19094 26181 ft 471 kts 220°
2026-04-22 00:37 -27.25981 27.17176 26424 ft 473 kts 220°
2026-04-22 00:38 -27.28797 27.15253 26689 ft 475 kts 220°
2026-04-22 00:38 -27.31627 27.13320 26959 ft 476 kts 221°
2026-04-22 00:38 -27.33545 27.12007 27072 ft 479 kts 221°
2026-04-22 00:38 -27.37319 27.09423 27379 ft 481 kts 221°
2026-04-22 00:39 -27.39215 27.08126 27522 ft 482 kts 221°
2026-04-22 00:39 -27.42082 27.06161 27742 ft 484 kts 221°
2026-04-22 00:39 -27.44967 27.04183 27950 ft 486 kts 221°
2026-04-22 00:39 -27.47856 27.02203 28168 ft 487 kts 221°
2026-04-22 00:40 -27.50760 27.00213 28363 ft 489 kts 221°
2026-04-22 00:40 -27.53671 26.98215 28558 ft 491 kts 221°
2026-04-22 00:40 -27.56593 26.96206 28755 ft 493 kts 221°
2026-04-22 00:40 -27.59522 26.94191 28992 ft 494 kts 221°
2026-04-22 00:41 -27.62450 26.92179 29333 ft 493 kts 221°
2026-04-22 00:41 -27.65374 26.90170 29664 ft 491 kts 221°
2026-04-22 00:41 -27.68289 26.88165 29952 ft 491 kts 221°
2026-04-22 00:41 -27.71206 26.86155 30241 ft 490 kts 221°
2026-04-22 00:42 -27.74108 26.84156 30539 ft 488 kts 221°
2026-04-22 00:42 -27.77009 26.82155 30771 ft 488 kts 222°
2026-04-22 00:42 -27.79903 26.80155 30973 ft 488 kts 222°
2026-04-22 00:42 -27.82803 26.78149 31178 ft 489 kts 222°
2026-04-22 00:43 -27.85700 26.76145 31386 ft 488 kts 222°
2026-04-22 00:43 -27.88600 26.74142 31572 ft 489 kts 222°
2026-04-22 00:43 -27.91502 26.72135 31773 ft 489 kts 222°
2026-04-22 00:43 -27.94396 26.70128 32048 ft 487 kts 223°
2026-04-22 00:44 -27.97284 26.68128 32301 ft 487 kts 223°
2026-04-22 00:44 -28.00330 26.66349 32481 ft 500 kts 213°
2026-04-22 00:44 -28.03593 26.65022 32660 ft 508 kts 209°
2026-04-22 00:44 -28.06978 26.63824 32838 ft 511 kts 207°
2026-04-22 00:45 -28.10398 26.62695 33009 ft 513 kts 206°
2026-04-22 00:45 -28.13829 26.61591 33197 ft 513 kts 206°
2026-04-22 00:45 -28.17271 26.60497 33368 ft 514 kts 207°
2026-04-22 00:45 -28.20709 26.59399 33621 ft 513 kts 207°
2026-04-22 00:46 -28.24142 26.58298 33873 ft 512 kts 207°
2026-04-22 00:46 -28.27560 26.57179 34066 ft 512 kts 207°
2026-04-22 00:46 -28.30992 26.56070 34090 ft 513 kts 207°
2026-04-22 00:47 -28.37865 26.53871 34082 ft 514 kts 207°
2026-04-22 00:47 -28.44740 26.51623 34079 ft 512 kts 207°
2026-04-22 00:48 -28.51587 26.49365 34083 ft 511 kts 207°
2026-04-22 00:48 -28.58397 26.47128 34080 ft 507 kts 208°
2026-04-22 00:49 -28.65233 26.44864 34086 ft 513 kts 207°
2026-04-22 00:49 -28.72109 26.42615 34087 ft 516 kts 208°
2026-04-22 00:50 -28.78996 26.40317 34121 ft 515 kts 207°
2026-04-22 00:50 -28.85888 26.38050 34121 ft 515 kts 207°
2026-04-22 00:51 -28.92789 26.35793 34138 ft 515 kts 207°
2026-04-22 00:51 -28.99687 26.33491 34157 ft 516 kts 207°
2026-04-22 00:52 -29.06571 26.31226 34186 ft 517 kts 207°
2026-04-22 00:52 -29.13678 26.29406 34155 ft 527 kts 200°
2026-04-22 00:53 -29.20932 26.28070 34171 ft 530 kts 199°
2026-04-22 00:53 -29.28250 26.26823 34140 ft 529 kts 199°
2026-04-22 00:54 -29.35452 26.25566 34179 ft 528 kts 200°
2026-04-22 00:54 -29.42706 26.24275 34129 ft 527 kts 199°
2026-04-22 00:55 -29.49968 26.22985 34142 ft 528 kts 199°
2026-04-22 00:55 -29.60849 26.21021 34192 ft 526 kts 199°
2026-04-22 00:56 -29.68078 26.19719 34164 ft 525 kts 199°
2026-04-22 00:56 -29.75302 26.18418 34165 ft 526 kts 199°
2026-04-22 00:57 -29.82525 26.17118 34163 ft 526 kts 199°
2026-04-22 00:57 -29.89753 26.15820 34189 ft 525 kts 200°
2026-04-22 00:58 -29.96971 26.14516 34171 ft 525 kts 200°
2026-04-22 00:58 -30.04181 26.13210 34192 ft 525 kts 200°
2026-04-22 00:59 -30.11392 26.11902 34200 ft 525 kts 200°
2026-04-22 00:59 -30.18603 26.10593 34203 ft 523 kts 200°
2026-04-22 01:00 -30.25740 26.09298 34207 ft 522 kts 200°
2026-04-22 01:00 -30.32924 26.07988 34211 ft 522 kts 200°
2026-04-22 01:01 -30.40103 26.06679 34211 ft 522 kts 200°
2026-04-22 01:01 -30.47269 26.05373 34227 ft 520 kts 200°
2026-04-22 01:02 -30.54415 26.04070 34241 ft 520 kts 200°
2026-04-22 01:02 -30.61560 26.02762 34240 ft 520 kts 200°
2026-04-22 01:03 -30.68701 26.01450 34266 ft 519 kts 200°
2026-04-22 01:03 -30.75823 26.00142 34236 ft 517 kts 200°
2026-04-22 01:04 -30.82922 25.98836 34237 ft 517 kts 201°
2026-04-22 01:04 -30.90020 25.97527 34232 ft 516 kts 201°
2026-04-22 01:05 -30.97119 25.96220 34231 ft 516 kts 200°
2026-04-22 01:05 -31.04182 25.94918 34246 ft 514 kts 200°
2026-04-22 01:06 -31.11223 25.93611 34225 ft 511 kts 200°
2026-04-22 01:06 -31.18237 25.92307 34223 ft 511 kts 200°
2026-04-22 01:07 -31.25257 25.90999 34199 ft 510 kts 200°
2026-04-22 01:07 -31.32267 25.89693 34213 ft 510 kts 200°
2026-04-22 01:08 -31.39278 25.88387 34215 ft 510 kts 200°
2026-04-22 01:08 -31.46295 25.87077 34275 ft 510 kts 200°
2026-04-22 01:09 -31.53297 25.85772 34221 ft 509 kts 201°
2026-04-22 01:09 -31.60244 25.84474 34230 ft 509 kts 201°
2026-04-22 01:10 -31.67335 25.83485 34234 ft 517 kts 195°
2026-04-22 01:10 -31.74530 25.82910 34243 ft 518 kts 195°
2026-04-22 01:11 -31.81696 25.82326 34227 ft 515 kts 195°
2026-04-22 01:11 -31.88836 25.81661 34226 ft 514 kts 196°
2026-04-22 01:12 -31.95968 25.80964 34227 ft 514 kts 196°
2026-04-22 01:12 -32.03086 25.80261 34228 ft 512 kts 195°
2026-04-22 01:13 -32.10167 25.79567 34220 ft 510 kts 195°
2026-04-22 01:13 -32.17248 25.78874 34218 ft 510 kts 196°
2026-04-22 01:14 -32.24320 25.78177 34248 ft 510 kts 195°
2026-04-22 01:14 -32.31380 25.77482 34218 ft 508 kts 195°
2026-04-22 01:15 -32.38422 25.76786 34209 ft 508 kts 195°
2026-04-22 01:15 -32.45461 25.76088 34212 ft 508 kts 195°
2026-04-22 01:16 -32.52501 25.75391 34202 ft 507 kts 195°
2026-04-22 01:16 -32.59525 25.74697 34188 ft 506 kts 195°
2026-04-22 01:17 -32.66541 25.73999 34189 ft 506 kts 195°
2026-04-22 01:17 -32.73562 25.73300 34236 ft 507 kts 194°
2026-04-22 01:18 -32.80512 25.72613 34179 ft 502 kts 194°
2026-04-22 01:18 -32.87463 25.71922 34172 ft 501 kts 194°
2026-04-22 01:19 -32.94421 25.71224 34170 ft 502 kts 195°
2026-04-22 01:19 -33.01382 25.70524 34175 ft 501 kts 194°
2026-04-22 01:20 -33.08334 25.69832 34165 ft 501 kts 194°
2026-04-22 01:20 -33.15273 25.69137 34158 ft 501 kts 194°
2026-04-22 01:21 -33.22220 25.68442 34205 ft 501 kts 195°
2026-04-22 01:21 -33.29169 25.67735 34145 ft 502 kts 195°
2026-04-22 01:22 -33.36124 25.67024 34146 ft 502 kts 195°
2026-04-22 01:22 -33.43089 25.66319 34143 ft 502 kts 195°
2026-04-22 01:23 -33.50054 25.65612 34140 ft 502 kts 195°
2026-04-22 01:23 -33.57024 25.64902 34136 ft 503 kts 195°
2026-04-22 01:24 -33.64002 25.64190 34135 ft 503 kts 195°
2026-04-22 01:24 -33.70971 25.63481 34126 ft 501 kts 195°
2026-04-22 01:25 -33.77904 25.62773 34125 ft 500 kts 195°
2026-04-22 01:25 -33.84835 25.62061 34128 ft 500 kts 195°
2026-04-22 01:26 -33.91768 25.61351 34130 ft 500 kts 195°
2026-04-22 01:26 -33.98695 25.60638 34134 ft 499 kts 195°
2026-04-22 01:27 -34.04398 25.59852 34129 ft 493 kts 199°
2026-04-22 01:27 -34.11131 25.58444 34125 ft 490 kts 201°
2026-04-22 01:28 -34.17854 25.57005 34119 ft 492 kts 200°
2026-04-22 01:28 -34.24605 25.55643 34119 ft 491 kts 200°
2026-04-22 01:29 -34.31351 25.54323 34112 ft 491 kts 200°
2026-04-22 01:29 -34.38093 25.53007 34116 ft 491 kts 200°
2026-04-22 01:30 -34.44834 25.51688 34177 ft 491 kts 200°
2026-04-22 01:30 -34.51554 25.50371 34119 ft 487 kts 200°
2026-04-22 01:31 -34.58231 25.49060 34120 ft 486 kts 200°
2026-04-22 01:31 -34.64901 25.47745 34126 ft 486 kts 200°
2026-04-22 01:32 -34.71572 25.46427 34137 ft 485 kts 200°
2026-04-22 01:32 -34.78218 25.45115 34133 ft 483 kts 200°
2026-04-22 01:33 -34.84854 25.43801 34131 ft 483 kts 200°
2026-04-22 01:33 -34.91484 25.42489 34132 ft 483 kts 200°
2026-04-22 01:34 -34.98113 25.41172 34136 ft 481 kts 200°
2026-04-22 01:34 -35.04666 25.39864 34132 ft 480 kts 200°
2026-04-22 01:35 -35.11260 25.38551 34135 ft 480 kts 200°
2026-04-22 01:35 -35.17849 25.37235 34176 ft 480 kts 201°
2026-04-22 01:36 -35.24431 25.35921 34123 ft 478 kts 201°
2026-04-22 01:36 -35.30996 25.34609 34142 ft 477 kts 201°
2026-04-22 01:37 -35.37555 25.33306 34135 ft 478 kts 201°
2026-04-22 01:37 -35.44136 25.31961 34133 ft 476 kts 200°
2026-04-22 01:38 -35.50612 25.30657 34120 ft 468 kts 200°
2026-04-22 01:38 -35.57051 25.29357 34120 ft 470 kts 200°
2026-04-22 01:39 -35.63530 25.28051 34114 ft 473 kts 200°
2026-04-22 01:39 -35.70026 25.26753 34116 ft 472 kts 200°
2026-04-22 01:40 -35.76499 25.25440 34121 ft 472 kts 200°
2026-04-22 01:40 -35.82922 25.24157 34117 ft 470 kts 200°
2026-04-22 01:41 -35.89341 25.22861 34120 ft 468 kts 200°
2026-04-22 01:41 -35.95763 25.21531 34117 ft 468 kts 200°
2026-04-22 01:42 -36.02196 25.20230 34114 ft 468 kts 200°
2026-04-22 01:42 -36.08649 25.18919 34113 ft 470 kts 200°
2026-04-22 01:43 -36.15073 25.17626 34119 ft 466 kts 200°
2026-04-22 01:43 -36.21485 25.16303 34112 ft 468 kts 200°
2026-04-22 01:44 -36.27915 25.14963 34108 ft 469 kts 200°
2026-04-22 01:44 -36.34317 25.13619 34109 ft 467 kts 200°
2026-04-22 01:45 -36.40757 25.12286 34111 ft 470 kts 201°
2026-04-22 01:45 -36.47245 25.10974 34103 ft 473 kts 200°
2026-04-22 01:46 -36.53713 25.09651 34106 ft 473 kts 200°
2026-04-22 01:46 -36.60183 25.08311 34178 ft 471 kts 200°
2026-04-22 01:47 -36.66656 25.06975 34101 ft 474 kts 200°
2026-04-22 01:47 -36.73167 25.05588 34099 ft 472 kts 200°
2026-04-22 01:48 -36.79650 25.04236 34100 ft 472 kts 200°
2026-04-22 01:48 -36.86120 25.02882 34104 ft 474 kts 201°
2026-04-22 01:49 -36.92617 25.01522 34107 ft 474 kts 200°
2026-04-22 01:49 -36.99070 25.00193 34095 ft 472 kts 200°
2026-04-22 01:50 -37.05571 24.98981 34096 ft 474 kts 198°
2026-04-22 01:50 -37.12162 24.97981 34097 ft 474 kts 197°
2026-04-22 01:51 -37.18672 24.96993 34097 ft 474 kts 197°
2026-04-22 01:51 -37.25212 24.95966 34094 ft 474 kts 197°
2026-04-22 01:52 -37.31748 24.94914 34100 ft 473 kts 197°
2026-04-22 01:52 -37.38271 24.93856 34093 ft 472 kts 197°
2026-04-22 01:53 -37.44786 24.92800 34090 ft 472 kts 197°
2026-04-22 01:53 -37.51300 24.91736 34081 ft 473 kts 197°
2026-04-22 01:54 -37.57817 24.90680 34082 ft 471 kts 196°
2026-04-22 01:54 -37.64311 24.89630 34080 ft 470 kts 196°
2026-04-22 01:55 -37.70804 24.88571 34077 ft 470 kts 196°
2026-04-22 01:55 -37.77296 24.87514 34089 ft 470 kts 195°
2026-04-22 01:56 -37.83781 24.86460 34075 ft 470 kts 195°
2026-04-22 01:56 -37.90269 24.85396 34075 ft 470 kts 195°
2026-04-22 01:57 -37.96745 24.84334 34072 ft 469 kts 195°
2026-04-22 01:57 -38.03220 24.83270 34071 ft 468 kts 195°
2026-04-22 01:58 -38.09686 24.82206 34076 ft 468 kts 195°
2026-04-22 01:58 -38.16145 24.81141 34067 ft 468 kts 195°
2026-04-22 01:59 -38.22606 24.80072 34071 ft 468 kts 194°
2026-04-22 01:59 -38.29068 24.79005 34069 ft 468 kts 194°
2026-04-22 02:00 -38.35529 24.77935 34071 ft 468 kts 194°
2026-04-22 02:00 -38.41982 24.76864 34071 ft 468 kts 194°
2026-04-22 02:01 -38.48436 24.75793 34069 ft 468 kts 194°
2026-04-22 02:01 -38.54896 24.74714 34067 ft 468 kts 194°
2026-04-22 02:02 -38.61353 24.73634 34067 ft 468 kts 194°
2026-04-22 02:02 -38.67808 24.72553 34063 ft 467 kts 194°
2026-04-22 02:03 -38.74204 24.71483 34064 ft 466 kts 194°
2026-04-22 02:03 -38.80634 24.70404 34064 ft 466 kts 194°
2026-04-22 02:04 -38.90283 24.68781 34062 ft 465 kts 193°
2026-04-22 02:05 -38.96697 24.67702 34057 ft 465 kts 193°
2026-04-22 02:05 -39.03107 24.66617 34056 ft 465 kts 193°
2026-04-22 02:06 -39.09516 24.65531 34063 ft 464 kts 193°
2026-04-22 02:06 -39.15914 24.64446 34050 ft 463 kts 193°
2026-04-22 02:07 -39.22296 24.63364 34056 ft 463 kts 193°
2026-04-22 02:07 -39.28677 24.62279 34051 ft 462 kts 193°
2026-04-22 02:08 -39.35055 24.61191 34049 ft 462 kts 192°
2026-04-22 02:08 -39.41419 24.60104 34048 ft 461 kts 192°
2026-04-22 02:09 -39.47779 24.59015 34049 ft 461 kts 192°
2026-04-22 02:09 -39.54138 24.57922 34042 ft 460 kts 192°
2026-04-22 02:10 -39.60479 24.56834 34038 ft 459 kts 192°
2026-04-22 02:10 -39.66812 24.55746 34045 ft 459 kts 192°
2026-04-22 02:11 -39.73150 24.54652 34060 ft 459 kts 191°
2026-04-22 02:11 -39.79466 24.53562 34050 ft 457 kts 191°
2026-04-22 02:12 -39.85766 24.52475 34044 ft 457 kts 191°
2026-04-22 02:12 -39.92066 24.51383 34046 ft 457 kts 191°
2026-04-22 02:13 -39.98363 24.50287 34047 ft 456 kts 191°
2026-04-22 02:13 -40.04646 24.49173 34047 ft 455 kts 192°
2026-04-22 02:14 -40.10913 24.48003 34048 ft 455 kts 192°
2026-04-22 02:14 -40.16122 24.47028 34061 ft 455 kts 191°
2026-04-22 02:15 -40.22362 24.45862 34048 ft 451 kts 191°
2026-04-22 02:15 -40.28569 24.44702 34049 ft 451 kts 191°
2026-04-22 02:16 -40.34778 24.43544 34046 ft 451 kts 191°
2026-04-22 02:16 -40.40969 24.42390 34043 ft 449 kts 191°
2026-04-22 02:17 -40.47147 24.41235 34042 ft 448 kts 191°
2026-04-22 02:17 -40.53317 24.40079 34056 ft 448 kts 191°
2026-04-22 02:18 -40.59489 24.38920 34054 ft 448 kts 191°
2026-04-22 02:18 -40.65601 24.37769 34049 ft 444 kts 191°
2026-04-22 02:19 -40.71683 24.36628 34049 ft 440 kts 191°
2026-04-22 02:19 -40.77747 24.35480 34064 ft 440 kts 191°
2026-04-22 02:20 -40.83793 24.34332 34042 ft 438 kts 191°
2026-04-22 02:20 -40.89812 24.33190 34047 ft 437 kts 191°
2026-04-22 02:21 -40.95828 24.32048 34042 ft 437 kts 191°
2026-04-22 02:21 -41.01840 24.30901 34048 ft 435 kts 191°
2026-04-22 02:22 -41.07825 24.29762 34046 ft 434 kts 191°
2026-04-22 02:22 -41.13805 24.28620 34044 ft 434 kts 191°
2026-04-22 02:23 -41.19787 24.27476 34050 ft 434 kts 190°
2026-04-22 02:23 -41.25761 24.26332 34043 ft 433 kts 190°
2026-04-22 02:24 -41.31730 24.25185 34050 ft 433 kts 190°
2026-04-22 02:24 -41.37694 24.24038 34048 ft 433 kts 190°
2026-04-22 02:25 -41.43658 24.22890 34043 ft 432 kts 190°
2026-04-22 02:25 -41.49597 24.21743 34044 ft 431 kts 190°
2026-04-22 02:26 -41.55537 24.20593 34045 ft 431 kts 190°
2026-04-22 02:26 -41.61471 24.19440 34053 ft 431 kts 190°
2026-04-22 02:27 -41.67404 24.18287 34046 ft 431 kts 190°
2026-04-22 02:27 -41.73331 24.17137 34044 ft 431 kts 190°
2026-04-22 02:28 -41.79262 24.15983 34047 ft 431 kts 190°
2026-04-22 02:28 -41.85188 24.14825 34044 ft 430 kts 189°
2026-04-22 02:29 -41.91100 24.13666 34043 ft 430 kts 189°
2026-04-22 02:29 -41.97012 24.12509 34046 ft 429 kts 189°
2026-04-22 02:30 -42.02923 24.11350 34046 ft 429 kts 189°
2026-04-22 02:30 -42.08826 24.10190 34045 ft 428 kts 189°
2026-04-22 02:31 -42.14717 24.09024 34042 ft 428 kts 189°
2026-04-22 02:31 -42.20612 24.07859 34052 ft 428 kts 189°
2026-04-22 02:32 -42.26498 24.06696 34019 ft 427 kts 189°
2026-04-22 02:32 -42.32345 24.05541 34041 ft 422 kts 189°
2026-04-22 02:33 -42.38119 24.04393 34042 ft 422 kts 189°
2026-04-22 02:33 -42.43929 24.03235 34036 ft 422 kts 188°
2026-04-22 02:34 -42.49729 24.02077 34042 ft 421 kts 188°
2026-04-22 02:34 -42.55523 24.00920 34042 ft 421 kts 188°
2026-04-22 02:35 -42.61320 23.99760 34043 ft 421 kts 188°
2026-04-22 02:35 -42.67113 23.98601 34039 ft 421 kts 188°
2026-04-22 02:36 -42.72912 23.97439 34024 ft 421 kts 188°
2026-04-22 02:36 -42.78688 23.96275 34041 ft 418 kts 188°
2026-04-22 02:37 -42.84433 23.95116 34040 ft 418 kts 188°
2026-04-22 02:37 -42.90188 23.93953 34037 ft 418 kts 188°
2026-04-22 02:38 -42.95945 23.92789 34041 ft 418 kts 188°
2026-04-22 02:38 -43.01695 23.91621 34050 ft 418 kts 188°
2026-04-22 02:39 -43.07448 23.90453 34041 ft 418 kts 188°
2026-04-22 02:39 -43.13181 23.89285 34040 ft 415 kts 188°
2026-04-22 02:40 -43.18882 23.88123 34044 ft 414 kts 188°
2026-04-22 02:40 -43.24542 23.86968 34041 ft 414 kts 188°
2026-04-22 02:41 -43.30238 23.85802 34041 ft 414 kts 188°
2026-04-22 02:41 -43.35938 23.84632 34042 ft 414 kts 188°
2026-04-22 02:42 -43.41634 23.83461 34039 ft 414 kts 188°
2026-04-22 02:42 -43.47323 23.82289 34036 ft 412 kts 187°
2026-04-22 02:43 -43.52981 23.81124 34042 ft 411 kts 187°
2026-04-22 02:43 -43.58629 23.79957 34040 ft 410 kts 187°
2026-04-22 02:44 -43.64273 23.78789 34049 ft 410 kts 187°
2026-04-22 02:44 -43.69915 23.77618 34038 ft 410 kts 187°
2026-04-22 02:45 -43.75556 23.76445 34037 ft 410 kts 187°
2026-04-22 02:45 -43.81192 23.75273 33995 ft 410 kts 187°
2026-04-22 02:46 -43.86817 23.74100 34033 ft 407 kts 187°
2026-04-22 02:46 -43.92418 23.72931 34039 ft 407 kts 187°
2026-04-22 02:47 -43.98022 23.71757 34033 ft 407 kts 187°
2026-04-22 02:47 -44.03621 23.70582 34041 ft 407 kts 187°
2026-04-22 02:48 -44.09222 23.69404 34034 ft 407 kts 187°
2026-04-22 02:48 -44.14819 23.68223 34029 ft 407 kts 187°
2026-04-22 02:49 -44.20377 23.67050 34026 ft 406 kts 186°
2026-04-22 02:49 -44.25983 23.65866 34040 ft 404 kts 186°
2026-04-22 02:50 -44.31534 23.64690 34030 ft 403 kts 186°
2026-04-22 02:50 -44.37032 23.63524 34030 ft 402 kts 186°
2026-04-22 02:51 -44.42570 23.62347 34028 ft 402 kts 186°
2026-04-22 02:51 -44.48101 23.61168 34043 ft 402 kts 186°
2026-04-22 02:52 -44.53629 23.59988 34027 ft 401 kts 186°
2026-04-22 02:52 -44.59141 23.58813 34028 ft 399 kts 186°
2026-04-22 02:53 -44.64621 23.57637 34026 ft 398 kts 185°
2026-04-22 02:53 -44.70098 23.56460 34024 ft 398 kts 186°
2026-04-22 02:54 -44.75571 23.55283 34025 ft 398 kts 186°
2026-04-22 02:54 -44.81045 23.54104 34025 ft 398 kts 186°
2026-04-22 02:55 -44.86521 23.52923 34020 ft 398 kts 186°
2026-04-22 02:55 -44.91993 23.51736 34025 ft 397 kts 185°
2026-04-22 02:56 -44.97438 23.50555 34017 ft 394 kts 185°
2026-04-22 02:56 -45.02856 23.49335 34016 ft 394 kts 187°
2026-04-22 02:57 -45.08245 23.47851 34019 ft 395 kts 188°
2026-04-22 02:57 -45.13625 23.46310 34030 ft 394 kts 187°
2026-04-22 02:58 -45.19002 23.44806 34014 ft 394 kts 187°
2026-04-22 02:58 -45.24379 23.43325 34017 ft 394 kts 187°
2026-04-22 02:59 -45.29718 23.41860 34013 ft 393 kts 187°
2026-04-22 02:59 -45.35090 23.40379 34023 ft 393 kts 187°
2026-04-22 03:00 -45.40458 23.38895 34017 ft 392 kts 187°
2026-04-22 03:00 -45.45812 23.37413 34013 ft 392 kts 187°
2026-04-22 03:01 -45.51165 23.35929 34012 ft 392 kts 187°
2026-04-22 03:01 -45.56521 23.34441 34016 ft 392 kts 187°
2026-04-22 03:02 -45.61877 23.32949 34009 ft 392 kts 187°
2026-04-22 03:02 -45.67227 23.31452 33969 ft 392 kts 187°
2026-04-22 03:03 -45.72571 23.29965 34012 ft 390 kts 187°
2026-04-22 03:03 -45.76998 23.28727 34011 ft 390 kts 187°
2026-04-22 03:04 -45.82325 23.27231 34014 ft 390 kts 187°
2026-04-22 03:04 -45.87642 23.25731 34013 ft 389 kts 187°
2026-04-22 03:05 -45.93857 23.23982 34008 ft 389 kts 187°
2026-04-22 03:05 -45.98280 23.22737 34009 ft 390 kts 187°
2026-04-22 03:06 -46.03595 23.21233 34024 ft 389 kts 187°
2026-04-22 03:06 -46.08911 23.19730 34003 ft 389 kts 188°
2026-04-22 03:07 -46.14230 23.18221 34016 ft 390 kts 188°
2026-04-22 03:07 -46.19550 23.16707 34008 ft 390 kts 188°
2026-04-22 03:08 -46.24868 23.15190 34010 ft 389 kts 188°
2026-04-22 03:08 -46.30184 23.13673 34011 ft 389 kts 188°
2026-04-22 03:09 -46.35493 23.12155 34005 ft 389 kts 188°
2026-04-22 03:09 -46.40802 23.10634 34003 ft 389 kts 188°
2026-04-22 03:10 -46.46080 23.09121 34010 ft 391 kts 188°
2026-04-22 03:10 -46.51414 23.07589 34003 ft 391 kts 188°
2026-04-22 03:11 -46.56746 23.06049 33998 ft 390 kts 188°
2026-04-22 03:11 -46.62078 23.04508 34002 ft 391 kts 188°
2026-04-22 03:12 -46.67406 23.02967 34001 ft 390 kts 188°
2026-04-22 03:12 -46.75402 23.00645 34003 ft 390 kts 188°
2026-04-22 03:13 -46.80727 22.99094 34007 ft 390 kts 188°
2026-04-22 03:13 -46.86067 22.97539 33999 ft 392 kts 189°
2026-04-22 03:14 -46.91420 22.95975 33999 ft 392 kts 189°
2026-04-22 03:14 -46.96778 22.94403 33999 ft 393 kts 189°
2026-04-22 03:15 -47.02134 22.92835 33996 ft 392 kts 189°
2026-04-22 03:15 -47.07488 22.91262 33999 ft 392 kts 189°
2026-04-22 03:16 -47.12842 22.89688 33996 ft 393 kts 189°
2026-04-22 03:16 -47.18200 22.88106 33996 ft 393 kts 189°
2026-04-22 03:17 -47.23565 22.86521 33998 ft 394 kts 189°
2026-04-22 03:17 -47.28951 22.84924 33996 ft 395 kts 189°
2026-04-22 03:18 -47.34342 22.83321 33988 ft 395 kts 189°
2026-04-22 03:18 -47.39738 22.81716 33991 ft 395 kts 189°
2026-04-22 03:19 -47.45132 22.80107 33999 ft 395 kts 189°
2026-04-22 03:19 -47.50520 22.78498 33985 ft 395 kts 189°
2026-04-22 03:20 -47.55915 22.76885 33988 ft 396 kts 189°
2026-04-22 03:20 -47.61307 22.75266 33973 ft 396 kts 190°
2026-04-22 03:21 -47.66723 22.73635 33988 ft 398 kts 190°
2026-04-22 03:21 -47.72148 22.72000 33983 ft 397 kts 190°
2026-04-22 03:22 -47.77530 22.70375 33978 ft 397 kts 190°
2026-04-22 03:22 -47.82950 22.68735 33980 ft 397 kts 190°
2026-04-22 03:23 -47.88369 22.67091 33976 ft 398 kts 190°
2026-04-22 03:23 -47.93791 22.65441 33979 ft 398 kts 190°
2026-04-22 03:24 -47.99210 22.63792 33956 ft 398 kts 190°
2026-04-22 03:24 -48.04645 22.62132 33974 ft 399 kts 190°
2026-04-22 03:25 -48.10090 22.60465 33971 ft 400 kts 190°
2026-04-22 03:25 -48.15537 22.58796 33974 ft 399 kts 190°
2026-04-22 03:26 -48.20985 22.57124 33966 ft 399 kts 190°
2026-04-22 03:26 -48.26430 22.55447 33963 ft 399 kts 190°
2026-04-22 03:27 -48.31875 22.53766 33963 ft 399 kts 190°
2026-04-22 03:27 -48.37319 22.52082 33959 ft 399 kts 190°
2026-04-22 03:28 -48.42763 22.50392 33964 ft 401 kts 191°
2026-04-22 03:28 -48.48238 22.48689 33960 ft 402 kts 191°
2026-04-22 03:29 -48.53720 22.46983 33963 ft 402 kts 191°
2026-04-22 03:29 -48.59206 22.45272 33952 ft 402 kts 191°
2026-04-22 03:30 -48.64687 22.43558 33960 ft 402 kts 191°
2026-04-22 03:30 -48.70172 22.41841 33952 ft 402 kts 191°
2026-04-22 03:31 -48.75650 22.40123 33946 ft 402 kts 191°
2026-04-22 03:31 -48.81133 22.38394 33942 ft 402 kts 191°
2026-04-22 03:32 -48.86636 22.36660 33944 ft 405 kts 191°
2026-04-22 03:32 -48.92165 22.34915 33951 ft 406 kts 191°
2026-04-22 03:33 -48.97697 22.33162 33936 ft 406 kts 191°
2026-04-22 03:33 -49.03227 22.31405 33936 ft 406 kts 191°
2026-04-22 03:34 -49.08758 22.29645 33930 ft 406 kts 191°
2026-04-22 03:34 -49.14295 22.27877 33933 ft 406 kts 191°
2026-04-22 03:35 -49.19827 22.26107 33928 ft 406 kts 191°
2026-04-22 03:35 -49.25342 22.24343 33927 ft 405 kts 191°
2026-04-22 03:36 -49.30856 22.22572 33930 ft 405 kts 191°
2026-04-22 03:36 -49.36375 22.20793 33925 ft 405 kts 191°
2026-04-22 03:37 -49.41891 22.19012 33925 ft 405 kts 191°
2026-04-22 03:37 -49.47367 22.17244 33922 ft 405 kts 191°
2026-04-22 03:38 -49.52883 22.15455 33922 ft 405 kts 191°
2026-04-22 03:38 -49.58395 22.13663 33914 ft 405 kts 191°
2026-04-22 03:39 -49.63913 22.11863 33914 ft 405 kts 191°
2026-04-22 03:39 -49.69451 22.10055 33914 ft 408 kts 192°
2026-04-22 03:40 -49.74998 22.08240 33914 ft 408 kts 192°
2026-04-22 03:40 -49.80552 22.06420 33906 ft 408 kts 192°
2026-04-22 03:41 -49.86103 22.04595 33909 ft 408 kts 192°
2026-04-22 03:41 -49.91658 22.02761 33897 ft 408 kts 192°
2026-04-22 03:42 -49.97205 22.00930 33901 ft 407 kts 192°
2026-04-22 03:42 -50.02741 21.99079 33897 ft 407 kts 193°
2026-04-22 03:43 -50.08262 21.97103 33881 ft 408 kts 194°
2026-04-22 03:43 -50.13806 21.95088 33890 ft 410 kts 193°
2026-04-22 03:44 -50.19329 21.93092 33900 ft 410 kts 193°
2026-04-22 03:44 -50.24882 21.91094 33886 ft 409 kts 193°
2026-04-22 03:45 -50.30425 21.89097 33878 ft 409 kts 193°
2026-04-22 03:45 -50.35974 21.87093 33881 ft 410 kts 193°
2026-04-22 03:46 -50.41525 21.85079 33873 ft 409 kts 193°
2026-04-22 03:46 -50.47072 21.83067 33875 ft 409 kts 194°
2026-04-22 03:47 -50.52625 21.81048 33871 ft 411 kts 194°
2026-04-22 03:47 -50.58196 21.79015 33870 ft 411 kts 194°
2026-04-22 03:48 -50.63775 21.76975 33862 ft 412 kts 194°
2026-04-22 03:48 -50.69354 21.74928 33864 ft 412 kts 194°
2026-04-22 03:49 -50.74933 21.72877 33858 ft 411 kts 194°
2026-04-22 03:49 -50.80505 21.70826 33859 ft 411 kts 194°
2026-04-22 03:50 -50.86073 21.68772 33851 ft 411 kts 194°
2026-04-22 03:50 -50.90706 21.67056 33851 ft 411 kts 194°
2026-04-22 03:51 -50.96290 21.64983 33846 ft 414 kts 195°
2026-04-22 03:51 -51.01902 21.62897 33850 ft 414 kts 195°
2026-04-22 03:52 -51.07510 21.60811 33842 ft 414 kts 195°
2026-04-22 03:52 -51.13115 21.58713 33843 ft 413 kts 195°
2026-04-22 03:53 -51.18715 21.56614 33835 ft 414 kts 195°
2026-04-22 03:53 -51.24322 21.54510 33836 ft 414 kts 195°
2026-04-22 03:54 -51.29924 21.52399 33827 ft 414 kts 195°
2026-04-22 03:54 -51.35523 21.50282 33815 ft 414 kts 195°
2026-04-22 03:55 -51.41154 21.48148 33823 ft 417 kts 195°
2026-04-22 03:55 -51.46800 21.46007 33817 ft 417 kts 195°
2026-04-22 03:56 -51.52446 21.43861 33832 ft 417 kts 195°
2026-04-22 03:56 -51.58082 21.41714 33813 ft 416 kts 195°
2026-04-22 03:57 -51.63717 21.39557 33810 ft 416 kts 195°
2026-04-22 03:57 -51.69348 21.37399 33801 ft 416 kts 195°
2026-04-22 03:58 -51.74982 21.35234 33804 ft 416 kts 195°
2026-04-22 03:58 -51.80619 21.33065 33805 ft 418 kts 196°
2026-04-22 03:59 -51.86249 21.30889 33799 ft 419 kts 196°
2026-04-22 03:59 -51.91920 21.28691 33799 ft 419 kts 196°
2026-04-22 04:00 -51.97593 21.26488 33801 ft 419 kts 196°
2026-04-22 04:00 -52.03269 21.24281 33793 ft 419 kts 196°
2026-04-22 04:01 -52.08940 21.22067 33793 ft 419 kts 196°
2026-04-22 04:01 -52.14616 21.19846 33785 ft 419 kts 196°
2026-04-22 04:02 -52.20289 21.17621 33785 ft 419 kts 196°
2026-04-22 04:02 -52.25970 21.15385 33777 ft 422 kts 196°
2026-04-22 04:03 -52.31688 21.13127 33777 ft 423 kts 196°
2026-04-22 04:03 -52.37413 21.10863 33772 ft 423 kts 196°
2026-04-22 04:04 -52.43120 21.08602 33774 ft 422 kts 196°
2026-04-22 04:04 -52.48826 21.06333 33763 ft 422 kts 196°
2026-04-22 04:05 -52.54534 21.04061 33760 ft 422 kts 196°
2026-04-22 04:05 -52.60238 21.01779 33758 ft 422 kts 196°
2026-04-22 04:06 -52.65936 20.99490 33756 ft 421 kts 196°
2026-04-22 04:06 -52.71648 20.97190 33747 ft 424 kts 197°
2026-04-22 04:07 -52.77381 20.94883 33749 ft 424 kts 197°
2026-04-22 04:07 -52.83113 20.92571 33738 ft 424 kts 197°
2026-04-22 04:08 -52.88847 20.90246 33738 ft 424 kts 197°
2026-04-22 04:08 -52.94579 20.87920 33735 ft 424 kts 197°
2026-04-22 04:09 -53.00305 20.85589 33729 ft 424 kts 197°
2026-04-22 04:09 -53.06034 20.83248 33720 ft 424 kts 197°
2026-04-22 04:10 -53.11759 20.80904 33722 ft 424 kts 197°
2026-04-22 04:10 -53.17499 20.78543 33724 ft 426 kts 198°
2026-04-22 04:11 -53.23255 20.76171 33715 ft 426 kts 197°
2026-04-22 04:11 -53.29003 20.73798 33707 ft 425 kts 197°
2026-04-22 04:12 -53.34751 20.71418 33705 ft 425 kts 197°
2026-04-22 04:12 -53.40495 20.69029 33703 ft 426 kts 197°
2026-04-22 04:13 -53.46206 20.66651 33719 ft 425 kts 197°
2026-04-22 04:13 -53.51948 20.64255 33688 ft 425 kts 197°
2026-04-22 04:14 -53.57681 20.61858 33680 ft 425 kts 197°
2026-04-22 04:14 -53.63412 20.59451 33681 ft 424 kts 197°
2026-04-22 04:15 -53.69145 20.57036 33671 ft 425 kts 198°
2026-04-22 04:15 -53.74878 20.54611 33698 ft 424 kts 198°
2026-04-22 04:16 -53.83454 20.50979 33657 ft 423 kts 198°
2026-04-22 04:17 -53.89165 20.48549 33658 ft 423 kts 198°
2026-04-22 04:17 -53.94877 20.46114 33652 ft 423 kts 198°
2026-04-22 04:18 -54.00587 20.43667 33652 ft 423 kts 198°
2026-04-22 04:18 -54.06305 20.41219 33637 ft 424 kts 198°
2026-04-22 04:19 -54.12039 20.38753 33638 ft 426 kts 198°
2026-04-22 04:19 -54.17781 20.36274 33627 ft 426 kts 198°
2026-04-22 04:20 -54.23517 20.33795 33630 ft 425 kts 198°
2026-04-22 04:20 -54.29256 20.31305 33621 ft 425 kts 198°
2026-04-22 04:21 -54.34993 20.28809 33630 ft 425 kts 198°
2026-04-22 04:21 -54.40723 20.26311 33607 ft 425 kts 198°
2026-04-22 04:22 -54.46449 20.23802 33609 ft 424 kts 198°
2026-04-22 04:22 -54.52175 20.21283 33596 ft 426 kts 199°
2026-04-22 04:23 -54.57931 20.18747 33597 ft 428 kts 199°
2026-04-22 04:23 -54.63699 20.16204 33609 ft 427 kts 198°
2026-04-22 04:24 -54.69412 20.13681 33587 ft 422 kts 198°
2026-04-22 04:24 -54.75058 20.11173 33589 ft 421 kts 199°
2026-04-22 04:25 -54.80737 20.08641 33586 ft 422 kts 199°
2026-04-22 04:25 -54.86421 20.06102 33575 ft 422 kts 199°
2026-04-22 04:26 -54.92106 20.03555 33578 ft 422 kts 199°
2026-04-22 04:26 -54.97786 20.01003 33642 ft 422 kts 199°
2026-04-22 04:27 -55.03530 19.98543 33884 ft 426 kts 197°
2026-04-22 04:27 -55.06439 19.97525 34068 ft 426 kts 195°
2026-04-22 04:27 -55.09351 19.96570 34239 ft 426 kts 195°
2026-04-22 04:27 -55.12266 19.95621 34401 ft 426 kts 195°
2026-04-22 04:28 -55.15178 19.94656 34561 ft 426 kts 195°
2026-04-22 04:28 -55.18088 19.93669 34699 ft 426 kts 195°
2026-04-22 04:28 -55.20996 19.92663 34902 ft 426 kts 196°
2026-04-22 04:28 -55.23898 19.91648 35092 ft 425 kts 196°
2026-04-22 04:29 -55.26792 19.90628 35242 ft 425 kts 196°
2026-04-22 04:29 -55.29693 19.89600 35378 ft 425 kts 196°
2026-04-22 04:29 -55.32589 19.88571 35495 ft 425 kts 196°
2026-04-22 04:30 -55.38412 19.86501 35533 ft 430 kts 196°
2026-04-22 04:30 -55.44256 19.84422 35520 ft 427 kts 196°
2026-04-22 04:31 -55.50079 19.82350 35549 ft 428 kts 196°
2026-04-22 04:31 -55.55931 19.80256 35515 ft 430 kts 196°
2026-04-22 04:32 -55.61795 19.78151 35511 ft 430 kts 196°
2026-04-22 04:32 -55.67659 19.76043 35500 ft 430 kts 196°
2026-04-22 04:33 -55.73522 19.73932 35500 ft 430 kts 196°
2026-04-22 04:33 -55.79381 19.71809 35532 ft 430 kts 196°
2026-04-22 04:34 -55.85241 19.69678 35490 ft 429 kts 196°
2026-04-22 04:34 -55.91095 19.67542 35476 ft 430 kts 196°
2026-04-22 04:35 -55.96913 19.65418 35480 ft 429 kts 196°
2026-04-22 04:35 -56.02767 19.63273 35467 ft 430 kts 197°
2026-04-22 04:36 -56.08653 19.61105 35498 ft 433 kts 197°
2026-04-22 04:36 -56.14549 19.58933 35459 ft 432 kts 197°
2026-04-22 04:37 -56.20438 19.56756 35456 ft 432 kts 197°
2026-04-22 04:37 -56.25374 19.54928 35451 ft 432 kts 197°
2026-04-22 04:38 -56.31259 19.52737 35443 ft 432 kts 197°
2026-04-22 04:38 -56.37110 19.50549 35446 ft 432 kts 197°
2026-04-22 04:39 -56.42996 19.48345 35427 ft 431 kts 197°
2026-04-22 04:39 -56.48871 19.46137 35432 ft 431 kts 197°
2026-04-22 04:40 -56.54752 19.43922 35417 ft 432 kts 197°
2026-04-22 04:40 -56.60655 19.41690 35421 ft 435 kts 197°
2026-04-22 04:41 -56.66582 19.39443 35405 ft 435 kts 197°
2026-04-22 04:41 -56.72511 19.37188 35403 ft 435 kts 197°
2026-04-22 04:42 -56.78426 19.34931 35400 ft 434 kts 197°
2026-04-22 04:42 -56.84339 19.32670 35399 ft 434 kts 197°
2026-04-22 04:43 -56.90252 19.30399 35382 ft 434 kts 197°
2026-04-22 04:43 -56.96167 19.28117 35386 ft 434 kts 197°
2026-04-22 04:44 -57.02041 19.25842 35374 ft 434 kts 197°
2026-04-22 04:44 -57.07948 19.23554 35364 ft 434 kts 197°
2026-04-22 04:45 -57.13871 19.21251 35359 ft 436 kts 197°
2026-04-22 04:45 -57.19811 19.18927 35359 ft 437 kts 197°
2026-04-22 04:46 -57.25758 19.16598 35348 ft 437 kts 197°
2026-04-22 04:46 -57.31708 19.14259 35351 ft 437 kts 197°
2026-04-22 04:47 -57.37643 19.11922 35334 ft 436 kts 197°
2026-04-22 04:47 -57.43574 19.09574 35334 ft 436 kts 198°
2026-04-22 04:48 -57.49507 19.07216 35322 ft 436 kts 198°
2026-04-22 04:48 -57.55441 19.04850 35320 ft 436 kts 198°
2026-04-22 04:49 -57.61376 19.02480 35332 ft 437 kts 198°
2026-04-22 04:49 -57.67358 19.00075 35311 ft 443 kts 198°
2026-04-22 04:50 -57.73396 18.97645 35303 ft 444 kts 198°
2026-04-22 04:50 -57.79442 18.95210 35302 ft 444 kts 198°
2026-04-22 04:51 -57.85487 18.92760 35292 ft 444 kts 198°
2026-04-22 04:51 -57.91526 18.90305 35291 ft 444 kts 198°
2026-04-22 04:52 -57.97529 18.87854 35279 ft 444 kts 198°
2026-04-22 04:52 -58.03566 18.85383 35278 ft 444 kts 198°
2026-04-22 04:53 -58.09609 18.82899 35273 ft 444 kts 198°
2026-04-22 04:53 -58.15653 18.80409 35272 ft 445 kts 198°
2026-04-22 04:54 -58.21697 18.77913 35297 ft 446 kts 198°
2026-04-22 04:54 -58.27767 18.75394 35252 ft 446 kts 198°
2026-04-22 04:55 -58.33830 18.72871 35255 ft 446 kts 198°
2026-04-22 04:55 -58.39894 18.70336 35246 ft 446 kts 198°
2026-04-22 04:56 -58.45958 18.67790 35244 ft 446 kts 198°
2026-04-22 04:56 -58.52021 18.65236 35232 ft 446 kts 198°
2026-04-22 04:57 -58.58080 18.62679 35236 ft 445 kts 198°
2026-04-22 04:57 -58.64128 18.60118 35217 ft 445 kts 198°
2026-04-22 04:58 -58.70175 18.57545 35218 ft 445 kts 198°
2026-04-22 04:58 -58.76221 18.54960 35212 ft 445 kts 198°
2026-04-22 04:59 -58.82265 18.52375 35210 ft 445 kts 198°
2026-04-22 04:59 -58.88314 18.49777 35202 ft 445 kts 199°
2026-04-22 05:00 -58.94346 18.47174 35188 ft 444 kts 199°
2026-04-22 05:00 -59.00378 18.44561 35186 ft 444 kts 199°
2026-04-22 05:01 -59.06410 18.41939 35183 ft 444 kts 199°
2026-04-22 05:01 -59.12439 18.39309 35176 ft 444 kts 199°
2026-04-22 05:02 -59.18468 18.36669 35175 ft 444 kts 199°
2026-04-22 05:02 -59.24487 18.34028 35163 ft 443 kts 199°
2026-04-22 05:03 -59.30461 18.31392 35153 ft 443 kts 199°
2026-04-22 05:03 -59.36538 18.28698 35145 ft 446 kts 199°
2026-04-22 05:04 -59.42589 18.26009 35146 ft 446 kts 199°
2026-04-22 05:04 -59.48604 18.23328 35170 ft 446 kts 199°
2026-04-22 05:05 -59.54648 18.20626 35130 ft 445 kts 199°
2026-04-22 05:05 -59.60684 18.17915 35119 ft 445 kts 199°
2026-04-22 05:06 -59.66724 18.15195 35122 ft 445 kts 199°
2026-04-22 05:06 -59.72764 18.12462 35122 ft 445 kts 199°
2026-04-22 05:07 -59.78806 18.09717 35102 ft 445 kts 199°
2026-04-22 05:07 -59.84843 18.06965 35101 ft 445 kts 199°
2026-04-22 05:08 -59.90874 18.04202 35091 ft 446 kts 199°
2026-04-22 05:08 -59.96924 18.01422 35095 ft 447 kts 199°
2026-04-22 05:09 -60.02979 17.98599 35068 ft 446 kts 200°
2026-04-22 05:09 -60.08988 17.95549 35074 ft 445 kts 201°
2026-04-22 05:10 -60.14987 17.92441 35076 ft 445 kts 201°
2026-04-22 05:10 -60.20971 17.89365 35062 ft 444 kts 201°
2026-04-22 05:11 -60.26962 17.86288 35054 ft 444 kts 201°
2026-04-22 05:11 -60.32958 17.83206 35055 ft 445 kts 201°
2026-04-22 05:12 -60.38947 17.80116 35043 ft 444 kts 201°
2026-04-22 05:12 -60.44939 17.77016 35069 ft 445 kts 201°
2026-04-22 05:13 -60.50939 17.73892 35034 ft 445 kts 201°
2026-04-22 05:13 -60.56939 17.70755 35026 ft 445 kts 201°
2026-04-22 05:14 -60.62941 17.67617 35027 ft 445 kts 201°
2026-04-22 05:14 -60.68939 17.64459 35009 ft 445 kts 201°
2026-04-22 05:15 -60.74898 17.61309 35010 ft 445 kts 201°
2026-04-22 05:15 -60.80895 17.58126 34996 ft 444 kts 201°
2026-04-22 05:16 -60.86868 17.54946 34979 ft 443 kts 201°
2026-04-22 05:16 -60.92830 17.51764 34975 ft 443 kts 201°
2026-04-22 05:17 -60.98795 17.48568 34982 ft 443 kts 202°
2026-04-22 05:17 -61.04773 17.45346 34958 ft 445 kts 202°
2026-04-22 05:18 -61.13764 17.40479 34952 ft 446 kts 202°
2026-04-22 05:18 -61.19760 17.37218 34943 ft 445 kts 202°
2026-04-22 05:19 -61.25754 17.33948 34955 ft 445 kts 202°
2026-04-22 05:19 -61.31746 17.30658 34953 ft 445 kts 202°
2026-04-22 05:20 -61.37738 17.27360 34927 ft 445 kts 202°
2026-04-22 05:20 -61.43728 17.24052 34966 ft 445 kts 202°
2026-04-22 05:21 -61.49710 17.20740 34933 ft 444 kts 202°
2026-04-22 05:21 -61.55676 17.17419 34932 ft 444 kts 202°
2026-04-22 05:22 -61.61654 17.14079 34914 ft 446 kts 202°
2026-04-22 05:22 -61.67652 17.10708 34914 ft 446 kts 202°
2026-04-22 05:23 -61.73645 17.07328 34914 ft 446 kts 202°
2026-04-22 05:23 -61.79638 17.03938 34905 ft 445 kts 202°
2026-04-22 05:24 -61.85617 17.00548 34897 ft 444 kts 202°
2026-04-22 05:24 -61.90581 16.97717 34897 ft 444 kts 202°
2026-04-22 05:25 -61.96551 16.94300 34896 ft 444 kts 202°
2026-04-22 05:25 -62.02523 16.90864 34883 ft 445 kts 202°
2026-04-22 05:26 -62.08490 16.87417 34883 ft 444 kts 202°
2026-04-22 05:26 -62.14460 16.83959 34878 ft 444 kts 203°
2026-04-22 05:27 -62.20428 16.80491 34877 ft 445 kts 203°
2026-04-22 05:27 -62.26404 16.76996 34866 ft 445 kts 203°
2026-04-22 05:28 -62.32381 16.73488 34866 ft 445 kts 203°
2026-04-22 05:28 -62.38359 16.69973 34863 ft 445 kts 203°
2026-04-22 05:29 -62.44335 16.66442 34904 ft 445 kts 203°
2026-04-22 05:29 -62.50302 16.62898 34857 ft 444 kts 203°
2026-04-22 05:30 -62.56265 16.59350 34851 ft 444 kts 203°
2026-04-22 05:30 -62.62219 16.55782 34849 ft 444 kts 204°
2026-04-22 05:31 -62.68167 16.52197 34854 ft 444 kts 204°
2026-04-22 05:31 -62.74127 16.48591 34847 ft 445 kts 204°
2026-04-22 05:32 -62.80103 16.44968 34867 ft 446 kts 204°
2026-04-22 05:32 -62.86073 16.41336 34846 ft 445 kts 204°
2026-04-22 05:33 -62.91994 16.37712 34847 ft 445 kts 204°
2026-04-22 05:33 -62.97960 16.34051 34843 ft 445 kts 204°
2026-04-22 05:34 -63.03921 16.30376 34839 ft 445 kts 204°
2026-04-22 05:34 -63.09884 16.26682 34841 ft 445 kts 204°
2026-04-22 05:35 -63.15842 16.22978 34844 ft 444 kts 204°
2026-04-22 05:35 -63.21779 16.19280 34837 ft 443 kts 204°
2026-04-22 05:36 -63.27709 16.15556 34838 ft 443 kts 204°
2026-04-22 05:36 -63.33646 16.11806 34844 ft 445 kts 204°
2026-04-22 05:37 -63.39602 16.08034 34843 ft 445 kts 205°
2026-04-22 05:37 -63.45565 16.04251 34837 ft 445 kts 205°
2026-04-22 05:38 -63.51518 16.00458 34844 ft 443 kts 205°
2026-04-22 05:38 -63.57447 15.96664 34842 ft 443 kts 205°
2026-04-22 05:39 -63.63369 15.92849 34849 ft 443 kts 205°
2026-04-22 05:39 -63.69292 15.89017 34843 ft 443 kts 205°
2026-04-22 05:40 -63.75211 15.85172 34844 ft 442 kts 205°
2026-04-22 05:40 -63.81131 15.81305 34898 ft 443 kts 205°
2026-04-22 05:41 -63.87041 15.77436 34842 ft 441 kts 205°
2026-04-22 05:41 -63.92939 15.73555 34840 ft 442 kts 205°
2026-04-22 05:42 -63.98858 15.69638 34842 ft 443 kts 205°
2026-04-22 05:42 -64.04782 15.65703 34845 ft 443 kts 205°
2026-04-22 05:43 -64.10705 15.61763 34844 ft 443 kts 205°
2026-04-22 05:43 -64.16622 15.57799 34889 ft 444 kts 205°
2026-04-22 05:44 -64.22531 15.53825 34853 ft 442 kts 205°
2026-04-22 05:44 -64.28424 15.49843 34835 ft 441 kts 205°
2026-04-22 05:45 -64.34318 15.45841 34854 ft 441 kts 206°
2026-04-22 05:45 -64.40215 15.41825 34849 ft 442 kts 205°
2026-04-22 05:46 -64.46104 15.37790 34836 ft 442 kts 205°
2026-04-22 05:46 -64.51997 15.33737 34851 ft 442 kts 205°
2026-04-22 05:47 -64.57889 15.29666 34852 ft 441 kts 205°
2026-04-22 05:47 -64.63776 15.25575 34841 ft 442 kts 206°
2026-04-22 05:48 -64.69661 15.21471 34838 ft 442 kts 206°
2026-04-22 05:48 -64.75509 15.17381 34839 ft 441 kts 206°
2026-04-22 05:49 -64.81393 15.13241 34836 ft 442 kts 206°
2026-04-22 05:49 -64.87278 15.09082 34858 ft 441 kts 206°
2026-04-22 05:50 -64.93151 15.04918 34843 ft 441 kts 206°
2026-04-22 05:50 -64.99024 15.00724 34847 ft 441 kts 206°
2026-04-22 05:51 -65.04858 14.96345 34846 ft 439 kts 207°
2026-04-22 05:51 -65.10638 14.91607 34841 ft 441 kts 208°
2026-04-22 05:52 -65.16443 14.86823 34849 ft 442 kts 208°
2026-04-22 05:52 -65.22260 14.82074 34862 ft 442 kts 207°
2026-04-22 05:53 -65.28084 14.77335 34855 ft 442 kts 207°
2026-04-22 05:53 -65.33914 14.72571 34852 ft 442 kts 207°
2026-04-22 05:54 -65.39733 14.67780 34851 ft 442 kts 207°
2026-04-22 05:54 -65.45551 14.62976 34859 ft 442 kts 207°
2026-04-22 05:55 -65.51366 14.58152 34854 ft 442 kts 207°
2026-04-22 05:55 -65.57183 14.53303 34877 ft 442 kts 207°
2026-04-22 05:56 -65.62997 14.48432 34887 ft 443 kts 207°
2026-04-22 05:56 -65.68837 14.43510 34863 ft 445 kts 207°
2026-04-22 05:57 -65.74656 14.38590 34871 ft 446 kts 207°
2026-04-22 05:57 -65.80515 14.33613 34868 ft 446 kts 207°
2026-04-22 05:58 -65.86371 14.28611 34884 ft 446 kts 207°
2026-04-22 05:58 -65.92224 14.23586 34924 ft 446 kts 207°
2026-04-22 05:59 -65.98075 14.18537 34879 ft 446 kts 207°
2026-04-22 05:59 -66.03931 14.13449 34891 ft 446 kts 207°
2026-04-22 06:00 -66.09787 14.08352 34895 ft 447 kts 207°
2026-04-22 06:00 -66.15639 14.03233 34902 ft 446 kts 207°
2026-04-22 06:01 -66.21490 13.98090 34905 ft 447 kts 207°
2026-04-22 06:01 -66.27359 13.92898 34959 ft 449 kts 207°
2026-04-22 06:02 -66.33243 13.87676 34910 ft 449 kts 207°
2026-04-22 06:02 -66.39126 13.82428 34908 ft 449 kts 207°
2026-04-22 06:03 -66.45006 13.77154 34916 ft 449 kts 207°
2026-04-22 06:03 -66.50886 13.71852 34916 ft 449 kts 207°
2026-04-22 06:04 -66.56763 13.66524 34925 ft 449 kts 207°
2026-04-22 06:04 -66.62641 13.61172 34924 ft 449 kts 207°
2026-04-22 06:05 -66.68519 13.55790 34928 ft 450 kts 207°
2026-04-22 06:05 -66.74404 13.50373 34933 ft 450 kts 207°
2026-04-22 06:06 -66.80287 13.44932 34932 ft 451 kts 207°
2026-04-22 06:06 -66.86191 13.39444 34933 ft 453 kts 207°
2026-04-22 06:07 -66.92105 13.33916 34946 ft 453 kts 207°
2026-04-22 06:07 -66.97977 13.28405 34936 ft 453 kts 207°
2026-04-22 06:08 -67.03887 13.22827 34952 ft 453 kts 207°
2026-04-22 06:08 -67.09806 13.17209 34948 ft 453 kts 207°
2026-04-22 06:09 -67.15719 13.11568 34956 ft 453 kts 207°
2026-04-22 06:09 -67.21630 13.05899 34955 ft 453 kts 207°
2026-04-22 06:10 -67.27543 13.00201 34954 ft 454 kts 207°
2026-04-22 06:10 -67.33457 12.94474 34961 ft 453 kts 207°
2026-04-22 06:11 -67.38372 12.89685 34960 ft 455 kts 207°
2026-04-22 06:11 -67.44308 12.83874 34970 ft 457 kts 207°
2026-04-22 06:12 -67.50254 12.78027 34967 ft 457 kts 207°
2026-04-22 06:12 -67.56197 12.72151 34967 ft 456 kts 207°
2026-04-22 06:13 -67.62135 12.66240 34979 ft 457 kts 207°
2026-04-22 06:13 -67.68072 12.60304 34979 ft 456 kts 207°
2026-04-22 06:14 -67.74004 12.54335 35014 ft 457 kts 206°
2026-04-22 06:14 -67.79953 12.48322 34987 ft 458 kts 206°
2026-04-22 06:15 -67.85910 12.42276 34984 ft 458 kts 206°
2026-04-22 06:15 -67.91865 12.36194 34984 ft 459 kts 206°
2026-04-22 06:16 -67.97824 12.30074 34985 ft 459 kts 206°
2026-04-22 06:16 -68.03794 12.23904 34995 ft 461 kts 206°
2026-04-22 06:17 -68.09766 12.17697 34998 ft 460 kts 207°
2026-04-22 06:17 -68.15740 12.11448 35006 ft 461 kts 207°
2026-04-22 06:18 -68.21706 12.05182 35006 ft 460 kts 207°
2026-04-22 06:18 -68.27677 11.98870 35006 ft 461 kts 207°
2026-04-22 06:19 -68.33599 11.92582 35018 ft 460 kts 207°
2026-04-22 06:19 -68.39560 11.86214 35018 ft 461 kts 207°
2026-04-22 06:20 -68.45518 11.79813 35056 ft 460 kts 207°
2026-04-22 06:20 -68.51477 11.73374 35026 ft 461 kts 207°
2026-04-22 06:21 -68.57440 11.66899 35029 ft 462 kts 207°
2026-04-22 06:21 -68.63354 11.60433 35040 ft 462 kts 207°
2026-04-22 06:22 -68.69325 11.53867 35040 ft 462 kts 207°
2026-04-22 06:22 -68.75299 11.47264 35055 ft 462 kts 207°
2026-04-22 06:23 -68.81207 11.40694 35101 ft 462 kts 207°
2026-04-22 06:23 -68.87176 11.34015 35053 ft 463 kts 206°
2026-04-22 06:24 -68.96130 11.23930 35065 ft 463 kts 207°
2026-04-22 06:25 -69.02093 11.17155 35074 ft 463 kts 207°
2026-04-22 06:25 -69.08056 11.10349 35089 ft 463 kts 207°
2026-04-22 06:26 -69.14014 11.03508 35070 ft 463 kts 207°
2026-04-22 06:26 -69.19943 10.96659 35112 ft 464 kts 206°
2026-04-22 06:27 -69.25946 10.89681 35096 ft 464 kts 206°
2026-04-22 06:27 -69.31916 10.82701 34975 ft 465 kts 206°
2026-04-22 06:27 -69.34858 10.79247 34753 ft 463 kts 207°
2026-04-22 06:28 -69.37836 10.75741 34515 ft 463 kts 207°
2026-04-22 06:28 -69.40811 10.72227 34283 ft 463 kts 207°
2026-04-22 06:28 -69.43784 10.68704 34044 ft 464 kts 207°
2026-04-22 06:28 -69.46760 10.65159 33812 ft 464 kts 207°
2026-04-22 06:29 -69.49736 10.61612 33620 ft 463 kts 207°
2026-04-22 06:29 -69.52710 10.58058 33384 ft 464 kts 207°
2026-04-22 06:29 -69.55683 10.54492 33194 ft 464 kts 206°
2026-04-22 06:29 -69.58664 10.50906 32940 ft 464 kts 206°
2026-04-22 06:30 -69.61637 10.47330 32667 ft 464 kts 207°
2026-04-22 06:30 -69.64614 10.43727 32399 ft 464 kts 207°
2026-04-22 06:30 -69.67591 10.40107 32128 ft 464 kts 207°
2026-04-22 06:30 -69.70569 10.36481 31899 ft 465 kts 206°
2026-04-22 06:31 -69.73547 10.32845 31630 ft 465 kts 206°
2026-04-22 06:31 -69.76528 10.29190 31362 ft 466 kts 207°
2026-04-22 06:31 -69.79512 10.25515 31122 ft 466 kts 207°
2026-04-22 06:31 -69.82494 10.21829 30866 ft 466 kts 207°
2026-04-22 06:32 -69.85472 10.18139 30366 ft 466 kts 207°
2026-04-22 06:32 -69.88460 10.14433 29610 ft 468 kts 207°
2026-04-22 06:32 -69.91463 10.10697 28771 ft 471 kts 206°
2026-04-22 06:32 -69.94481 10.06930 27866 ft 473 kts 206°
2026-04-22 06:33 -69.97487 10.03174 27317 ft 468 kts 206°
2026-04-22 06:33 -70.00529 9.99967 26940 ft 462 kts 198°
2026-04-22 06:33 -70.03598 9.97457 26485 ft 456 kts 198°
2026-04-22 06:33 -70.06648 9.95109 25943 ft 452 kts 197°
2026-04-22 06:34 -70.09689 9.92851 25374 ft 449 kts 196°
2026-04-22 06:34 -70.12707 9.90644 24821 ft 445 kts 197°
2026-04-22 06:34 -70.15705 9.88459 24258 ft 443 kts 196°
2026-04-22 06:34 -70.18684 9.86275 23695 ft 440 kts 195°
2026-04-22 06:35 -70.21607 9.84119 23149 ft 438 kts 195°
2026-04-22 06:35 -70.24556 9.81945 22544 ft 437 kts 194°
2026-04-22 06:35 -70.27500 9.79774 21940 ft 433 kts 195°
2026-04-22 06:35 -70.30406 9.77599 21354 ft 429 kts 195°
2026-04-22 06:36 -70.33284 9.75420 20787 ft 424 kts 195°
2026-04-22 06:36 -70.36133 9.73261 20232 ft 420 kts 195°
2026-04-22 06:36 -70.38956 9.71126 19666 ft 417 kts 195°
2026-04-22 06:36 -70.41759 9.69001 19107 ft 414 kts 195°
2026-04-22 06:37 -70.44535 9.66892 18548 ft 410 kts 195°
2026-04-22 06:37 -70.47290 9.64795 18002 ft 407 kts 195°
2026-04-22 06:37 -70.50024 9.62708 17465 ft 404 kts 195°
2026-04-22 06:37 -70.52738 9.60628 16872 ft 401 kts 194°
2026-04-22 06:38 -70.55427 9.58562 16334 ft 397 kts 194°
2026-04-22 06:38 -70.58057 9.56361 16041 ft 386 kts 201°
2026-04-22 06:38 -70.60286 9.52230 16014 ft 374 kts 220°
2026-04-22 06:38 -70.62344 9.47236 16025 ft 386 kts 213°
2026-04-22 06:39 -70.64786 9.43784 16035 ft 388 kts 199°
2026-04-22 06:39 -70.67318 9.41099 15515 ft 385 kts 199°
2026-04-22 06:39 -70.69842 9.38398 14918 ft 384 kts 198°
2026-04-22 06:39 -70.72350 9.35651 14332 ft 383 kts 199°
2026-04-22 06:40 -70.74843 9.32872 13797 ft 381 kts 199°
2026-04-22 06:40 -70.77318 9.30093 13310 ft 377 kts 199°
2026-04-22 06:40 -70.79769 9.27303 12765 ft 375 kts 198°
2026-04-22 06:40 -70.82206 9.24449 12081 ft 376 kts 200°
2026-04-22 06:41 -70.84632 9.21611 11570 ft 372 kts 199°
2026-04-22 06:41 -70.87042 9.18798 11060 ft 370 kts 199°
2026-04-22 06:41 -70.89402 9.15828 10754 ft 363 kts 203°
2026-04-22 06:41 -70.91582 9.12133 10543 ft 354 kts 209°
2026-04-22 06:42 -70.93652 9.08247 10400 ft 344 kts 210°
2026-04-22 06:42 -70.95657 9.04419 10223 ft 335 kts 209°
2026-04-22 06:42 -70.97602 9.00631 10048 ft 327 kts 211°
2026-04-22 06:42 -70.99497 8.96950 9890 ft 318 kts 211°
2026-04-22 06:43 -71.01322 8.93451 9760 ft 309 kts 210°
2026-04-22 06:43 -71.03122 8.89983 9629 ft 301 kts 210°
2026-04-22 06:43 -71.04877 8.86627 9470 ft 294 kts 210°
2026-04-22 06:43 -71.06602 8.83350 9262 ft 289 kts 211°
2026-04-22 06:44 -71.08307 8.80123 8989 ft 287 kts 210°
2026-04-22 06:44 -71.10006 8.76896 8667 ft 287 kts 210°
2026-04-22 06:44 -71.11692 8.73652 8329 ft 285 kts 210°
2026-04-22 06:44 -71.13373 8.70382 8009 ft 284 kts 210°
2026-04-22 06:45 -71.15043 8.67122 7714 ft 283 kts 210°
2026-04-22 06:45 -71.16699 8.63883 7420 ft 281 kts 210°
2026-04-22 06:45 -71.18344 8.60636 7102 ft 280 kts 210°
2026-04-22 06:45 -71.19984 8.57391 6759 ft 279 kts 210°
2026-04-22 06:46 -71.21615 8.54130 6458 ft 279 kts 210°
2026-04-22 06:46 -71.23237 8.50859 6143 ft 278 kts 210°
2026-04-22 06:46 -71.24852 8.47578 5839 ft 277 kts 210°
2026-04-22 06:46 -71.26452 8.44287 5651 ft 273 kts 210°
2026-04-22 06:47 -71.28038 8.41011 5925 ft 276 kts 210°
2026-04-22 06:47 -71.29681 8.37940 5996 ft 274 kts 198°
2026-04-22 06:47 -71.31505 8.36863 5996 ft 264 kts 171°
2026-04-22 06:47 -71.33188 8.38628 6013 ft 253 kts 144°
2026-04-22 06:48 -71.34566 8.41971 6009 ft 250 kts 133°
2026-04-22 06:48 -71.35520 8.46395 6014 ft 245 kts 111°
2026-04-22 06:48 -71.36262 8.51208 6009 ft 246 kts 111°
2026-04-22 06:48 -71.36773 8.56278 6011 ft 244 kts 101°
2026-04-22 06:49 -71.37133 8.61460 6006 ft 244 kts 100°
2026-04-22 06:49 -71.37460 8.66692 5970 ft 247 kts 101°
2026-04-22 06:49 -71.37751 8.72026 5800 ft 252 kts 100°
2026-04-22 06:49 -71.38016 8.77470 6036 ft 254 kts 100°
2026-04-22 06:50 -71.38281 8.82908 5997 ft 252 kts 100°
2026-04-22 06:50 -71.38539 8.88354 5993 ft 253 kts 100°
2026-04-22 06:50 -71.39089 8.93544 5985 ft 252 kts 122°
2026-04-22 06:50 -71.40304 8.97361 5998 ft 247 kts 150°
2026-04-22 06:51 -71.41904 8.98723 5982 ft 235 kts 180°
2026-04-22 06:51 -71.43485 8.97649 6001 ft 233 kts 197°
2026-04-22 06:51 -71.45004 8.95797 6001 ft 235 kts 199°
2026-04-22 06:51 -71.46499 8.93663 6000 ft 236 kts 204°
2026-04-22 06:52 -71.47944 8.91179 5998 ft 238 kts 209°
2026-04-22 06:52 -71.49323 8.88462 5986 ft 228 kts 210°
2026-04-22 06:52 -71.50589 8.85671 5982 ft 216 kts 214°
2026-04-22 06:52 -71.51742 8.82870 5980 ft 203 kts 215°
2026-04-22 06:53 -71.52816 8.80193 5976 ft 191 kts 215°
2026-04-22 06:53 -71.53852 8.77607 5998 ft 190 kts 214°
2026-04-22 06:53 -71.54873 8.75028 6034 ft 186 kts 214°
2026-04-22 06:53 -71.55879 8.72477 6018 ft 186 kts 214°
2026-04-22 06:54 -71.56902 8.69963 6010 ft 187 kts 213°
2026-04-22 06:54 -71.58101 8.68684 6023 ft 181 kts 181°
2026-04-22 06:54 -71.59352 8.68690 6010 ft 181 kts 175°
2026-04-22 06:54 -71.60543 8.69844 6028 ft 180 kts 150°
2026-04-22 06:55 -71.61591 8.71968 6012 ft 180 kts 145°
2026-04-22 06:55 -71.62605 8.74208 6016 ft 180 kts 145°
2026-04-22 06:55 -71.63396 8.77253 5824 ft 178 kts 114°
2026-04-22 06:55 -71.63450 8.81149 5600 ft 182 kts 75°
2026-04-22 06:56 -71.62674 8.84304 5574 ft 184 kts 38°
2026-04-22 06:56 -71.61564 8.85520 5256 ft 177 kts 352°
2026-04-22 06:56 -71.60584 8.83333 4847 ft 172 kts 302°
2026-04-22 06:56 -71.59948 8.80327 4761 ft 161 kts 302°
2026-04-22 06:57 -71.59120 8.78214 4723 ft 152 kts 342°
2026-04-22 06:57 -71.58020 8.77520 4611 ft 171 kts 354°
2026-04-22 06:57 -71.56814 8.77356 4502 ft 173 kts
2026-04-22 06:57 -71.55627 8.77220 4263 ft 168 kts 356°
2026-04-22 06:58 -71.54589 8.76881 4208 ft 110 kts 350°
2026-04-22 06:58 -71.54135 8.76785 4187 ft 28 kts 358°
2026-04-22 06:58 -71.54102 8.76795 4186 ft 0 kts
2026-04-22 06:59 -71.54079 8.76803 4183 ft 4 kts
2026-04-22 06:59 -71.54077 8.76803 4183 ft 0 kts